Location: Baili�vre
(50.0696°N, 4.2409°E)
Time: 07:34:11
(UTC+00:00)

Cosmos 2100 Rocket - Pass Details

Date: 08 August 2020
Orbit: 957 x 1000 km, 82.9° (Epoch: 26 September)

Event Time Altitude Azimuth Distance (km) Brightness Sun altitude
Exits shadow 22:05:36 34° 178° (S) 1,539 4.5 -20.3°
Maximum altitude 22:08:29 79° 97° (E) 981 3.9 -20.5°
Drops below altitude 10° 22:14:40 10° 12° (NNE) 2,701 7.1 -21.0°
Sets 22:17:10 0° 11° (N) 3,652 7.9 -21.1°
